Погода в Бирре

Ирландия     53°05′48″N   7°54′25″W
темп.,
°C
ветер,
м/с
пор.,
м/с
влажн.,
%
обл.,
%
осадки,
мм/ч
давл.,
гПа
погр.,
м
18 мая, вт
вт1801:00+4юз23945 0.0 101136
04:00+4ююз229611 0.0 101134
07:00+5ю12930 0.0 101179
10:00+11юз237518 0.1 1012879
13:00+13зюз346550 1.1 10121471
16:00+13зсз457664 1.9 10121214
19:00+11зсз58783 2.9 1014643
22:00+6з37915 0.0 1016123
19 мая, ср
ср1901:00+4зюз36955 0.0 1017104
04:00+3юз35961 0.0 101774
07:00+5ююз26965 0.0 1018157
10:00+11зюз467329 0.0 10191096
13:00+14з565429 0.1 10191956
16:00+14з56535 0.0 10191811
19:00+13з3469100 0.0 10191067
22:00+6зюз0186100 0.0 102010
20 мая, чт
чт2001:00+7юв2383100 0.0 101750
04:00+7ююв51186100 0.0 1014544
07:00+8юв111995100 1.4 1007996
10:00+10ююв91797100 0.4 10021248
13:00+11ю91889100 1.6 9981522
16:00+12ююз81681100 0.0 9941489
19:00+10ююз91787100 0.3 9931443
22:00+10ююз112184100 0.1 9901623
21 мая, пт
пт2101:00+10юз101896100 4.0 9881320
04:00+10зюз10179491 0.6 9881141
07:00+9з71394100 1.5 989843
10:00+10зсз7129477 0.9 992839
13:00+12сз8118772 2.3 9931128
16:00+11сз9138750 1.2 9951226
19:00+9ссз8148398 1.6 9981318
22:00+7сз8148075 0.1 10011218
22 мая, сб
сб2201:00+6сз8148734 0.2 1003924
04:00+4зсз614745 0.0 1003668
07:00+5сз613765 0.0 1005977
10:00+9сз8126335 0.1 10061673
13:00+10сз8106798 0.7 10061795
16:00+10сз7107184 1.2 10081787
19:00+8зсз6108156 2.5 10091130
22:00+5зюз41088100 0.2 1010309